Estación Meteorológica Peña el Pijo (Robertgarden) [ 07/11/20 22:37:05 CEST ]

Fecha Hora Presion(HPa) Temp (°C) Humedad % Rocio (°C) Viento ( m/s) Direccion Lluvia 1Hora(mm) Lluvia 24H(mm) LLuvia Total(mm)
2020-Mar-17 01:09:32 1006.000 - - - - N     39.88
2020-Mar-17 02:11:19 1006.400 - - - - N     39.88
2020-Mar-17 03:10:32 1006.300 - - - - N     39.88
2020-Mar-17 04:12:55 1006.300 - - - - N     39.88
2020-Mar-17 05:10:22 1006.500 - - - - N     39.88
2020-Mar-17 06:09:47 1007.100 - - - - N     39.88
2020-Mar-17 07:09:10 1008.100 - - - - N     39.88
2020-Mar-17 08:09:52 1008.900 - - - - N     39.88
2020-Mar-17 09:08:51 1009.300 - - - - N     39.88
2020-Mar-17 10:08:49 1010.100 - - - - N     39.88
2020-Mar-17 11:09:39 1010.400 - - - - N     39.88
2020-Mar-17 12:09:17 1011.100 - - - - N     39.88
2020-Mar-17 13:08:54 1010.900 - - - - N     39.88
2020-Mar-17 14:09:38 1010.300 - - - - N     39.88
2020-Mar-17 15:09:21 1010.300 - - - - N     39.88
2020-Mar-17 16:09:13 1010.800 - - - - N     39.88
2020-Mar-17 17:09:16 1010.900 - - - - N     39.88
2020-Mar-17 18:08:53 1011.400 - - - - N     39.88
2020-Mar-17 19:09:22 1011.400 - - - - N     39.88
2020-Mar-17 20:09:11 1012.000 - - - - N     39.88
2020-Mar-17 21:09:11 1012.800 - - - - N     39.88
2020-Mar-17 22:09:02 1013.100 - - - - NNW     39.88
2020-Mar-17 23:08:56 1013.200 - - - - N     39.88

Temperatura Máxima:    Temperatura Mínima:
Presión Máxima:1013.200 Hpa    Presión Mínima:1006.000 Hpa


Volver